[ hide orbit diagram ]
For accurate long-term ephemerides, please instead use our Horizons system.This orbit viewer was implemented using two-body methods, and hence should not be used for determining accurate long-term trajectories (over several years or decades) or planetary encounter circumstances.
Orbital Elements at Epoch 2459000.5 (2020-May-31.0) TDB
Reference: JPL 15 (heliocentric ecliptic J2000)
Element | Value | Uncertainty (1-sigma) | Units |
e | .1632054313103213 | 4.4693e-08 | |
a | 3.106472256589505 | 2.7657e-08 | au |
q | 2.599479112099268 | 1.4114e-07 | au |
i | 2.782266644052099 | 4.811e-06 | deg |
node | 123.1557984319155 | 9.1863e-05 | deg |
peri | 183.5213470214646 | 9.4208e-05 | deg |
M | 353.1164913013215 | 1.7189e-05 | deg |
tp | 2459038.739042643285 (2020-Jul-08.23904264) | 9.5417e-05 | TDB |
period | 1999.860239041395 5.48 | 2.6707e-05 7.312e-08 | d yr |
n | .1800125793653265 | 2.404e-09 | deg/d |
Q | 3.613465401079742 | 3.2171e-08 | au |
|
| | Orbit Determination Parameters
Additional Information
|
[ show covariance matrix ]
Physical Parameter Table
Parameter |
Symbol |
Value |
Units |
Sigma |
Reference |
Notes |
absolute magnitude |
H |
16.2 |
|
n/a |
MPO437380 |
|
|
312783 (2010 VX52) Discovered 2008-Mar-13 by Spacewatch at Kitt Peak |
Reference: 20120109/Numbers.arc | Last Updated: 2012-01-11 |
|
[ show close-approach data ]
|